Weather in Akshuat

Russia / Ulyanovsk Oblast     53°40′33″N   47°26′15″E
temp.,
°C
wind,
m/s
gust,
m/s
humid.,
%
clouds,
%
prec.,
mm/h
press.,
hPa
HPBL,
m
11 may, tue
tue1101:00+14ene41170100 0.0 1018201
04:00+13ne4878100 0.0 1020154
07:00+15e41367100 0.0 1021416
10:00+18se6954100 0.0 1023846
13:00+20se585381 0.0 10241596
16:00+15ssw4677100 0.0 1026264
19:00+16ssw247197 0.0 1026370
22:00+12wnw118257 0.0 102710
12 may, wed
wed1201:00+11n339088 0.0 102646
04:00+11ene399275 0.0 1026155
07:00+14ese498070 0.0 1026282
10:00+15e41272100 0.0 1026428
13:00+16ese61265100 0.0 1026570
16:00+16ese4116486 0.0 1025349
19:00+17se4106694 0.0 1025486
22:00+13ese387839 0.0 1025168
13 may, thu
thu1301:00+12ese357842 0.0 102589
04:00+13e3969100 0.0 1025199
07:00+13e51366100 0.0 1024326
10:00+13e4778100 0.9 1024214
13:00+18ese51264100 0.2 1023465
16:00+23ese71251100 0.2 10221247
19:00+21se7145238 0.0 1021663
22:00+15se37714 0.2 1021108
14 may, fri
fri1401:00+14sse357191 0.6 102178
04:00+12se396822 0.8 1021159
07:00+15s2106715 0.0 1022239
10:00+21s4751100 0.0 1021499
13:00+26s68349 0.0 10211260
16:00+26s61036100 0.0 10211487
19:00+23sse510485 0.0 1020330
22:00+18sse49570 0.0 1021171
15 may, sat
sat1501:00+16s412545 0.0 1021194
04:00+15sse365411 0.0 102185
07:00+17sse310578 0.0 1021205
10:00+24s59345 0.0 1021562
13:00+27s71125100 0.0 10201560
16:00+27s693195 0.0 10191780
19:00+23sse49438 0.0 1019227
22:00+19sse36475 0.0 101889